Simultaneous Nadir Overpasses (SNOs) Predictions

Prediction of SNOs between LANDSAT-8 and NOAA-19 Satellite Orbit:

Table of predicted SNOs for the next 14.0 days since TLE Epoch: 10/9/2016
Index Date (LANDSAT-8) Time (LANDSAT-8) Lat,Lon (LANDSAT-8) SZA (LANDSAT-8 ) Date (NOAA-19) Time (NOAA-19) Lat,Lon (NOAA-19) SZA (NOAA-19 ) Distance(km) Time Diff (sec)
1 10/09/2016 11:59:56 -75.19,-173.94 98.17 10/09/2016 11:59:42 -75.18,-173.98 98.18 1.75 14
2 10/09/2016 12:49:27 74.92, -7.01 81.55 10/09/2016 12:50:37 74.86, -5.77 81.56 36.44 70
3 10/11/2016 17:33:40 75.18, -77.38 82.68 10/11/2016 17:33:42 75.17, -77.40 82.66 1.65 2
4 10/13/2016 22:17:56 75.29,-148.16 83.62 10/13/2016 22:16:44 75.34,-148.64 83.64 14.70 72
5 10/13/2016 23:07:26 -75.17, 19.15 96.50 10/13/2016 23:07:39 -75.16, 19.19 96.51 1.83 13
6 10/16/2016 03:51:43 -75.23, -51.77 95.62 10/16/2016 03:50:38 -75.23, -51.70 95.63 1.95 65
7 10/16/2016 04:41:10 75.15, 115.67 84.31 10/16/2016 04:41:40 75.16, 115.74 84.33 2.31 30
8 10/18/2016 09:25:26 75.26, 44.87 85.23 10/18/2016 09:24:40 75.25, 44.76 85.21 3.06 46
9 10/18/2016 10:14:55 -75.19,-147.68 94.84 10/18/2016 10:15:36 -75.17,-147.70 94.85 2.99 41
10 10/20/2016 14:59:12 -75.24, 141.39 93.99 10/20/2016 14:58:35 -75.24, 141.37 93.99 0.32 37
11 10/20/2016 15:48:39 75.16, -51.19 85.94 10/20/2016 15:49:38 75.17, -51.18 85.97 1.68 59
12 10/22/2016 20:32:55 75.25,-122.01 86.82 10/22/2016 20:32:37 75.23,-122.06 86.80 2.56 18




NCC Satellite Simultaneous Nadir Overpasses (SNOs) Prediction Service
